HVDC transfer

From www.emi.ea.govt.nz provided by the Electricity Authority (New Zealand)
Run at: 20240520122804

Parameters
Date range,11 Apr 2024 - 08 May 2024
Time scale,Trading period
Show,Average flow (MW)

Period start,Period end,Trading period,Direction,Energy transfer (GWh),Peak flow (MW),Average flow (MW)
11/04/2024 00:00:00,11/04/2024 00:30:00,1,Northward at Haywards,0.034,68,68
11/04/2024 00:30:00,11/04/2024 01:00:00,2,Northward at Haywards,0.102,204,204
11/04/2024 01:00:00,11/04/2024 01:30:00,3,Northward at Haywards,0.123,246,246
11/04/2024 01:30:00,11/04/2024 02:00:00,4,Northward at Haywards,0.089,178,178
11/04/2024 02:00:00,11/04/2024 02:30:00,5,Northward at Haywards,0.051,102,102
11/04/2024 02:30:00,11/04/2024 03:00:00,6,Northward at Haywards,0.044,88,88
11/04/2024 03:00:00,11/04/2024 03:30:00,7,Northward at Haywards,0.049,97,97
11/04/2024 03:30:00,11/04/2024 04:00:00,8,Northward at Haywards,0.049,97,97
11/04/2024 04:00:00,11/04/2024 04:30:00,9,Northward at Haywards,0.048,95,95
11/04/2024 04:30:00,11/04/2024 05:00:00,10,Northward at Haywards,0.042,83,83
11/04/2024 05:00:00,11/04/2024 05:30:00,11,Northward at Haywards,0.041,81,81
11/04/2024 05:30:00,11/04/2024 06:00:00,12,Northward at Haywards,0.060,120,120
11/04/2024 06:00:00,11/04/2024 06:30:00,13,Northward at Haywards,0.119,237,237
11/04/2024 06:30:00,11/04/2024 07:00:00,14,Northward at Haywards,0.149,297,297
11/04/2024 07:00:00,11/04/2024 07:30:00,15,Northward at Haywards,0.216,431,431
11/04/2024 07:30:00,11/04/2024 08:00:00,16,Northward at Haywards,0.220,440,440
11/04/2024 08:00:00,11/04/2024 08:30:00,17,Northward at Haywards,0.211,421,421
11/04/2024 08:30:00,11/04/2024 09:00:00,18,Northward at Haywards,0.207,413,413
11/04/2024 09:00:00,11/04/2024 09:30:00,19,Northward at Haywards,0.228,456,456
11/04/2024 09:30:00,11/04/2024 10:00:00,20,Northward at Haywards,0.193,385,385
11/04/2024 10:00:00,11/04/2024 10:30:00,21,Northward at Haywards,0.172,343,343
11/04/2024 10:30:00,11/04/2024 11:00:00,22,Northward at Haywards,0.173,346,346
11/04/2024 11:00:00,11/04/2024 11:30:00,23,Northward at Haywards,0.182,363,363
11/04/2024 11:30:00,11/04/2024 12:00:00,24,Northward at Haywards,0.179,358,358
11/04/2024 12:00:00,11/04/2024 12:30:00,25,Northward at Haywards,0.247,493,493
11/04/2024 12:30:00,11/04/2024 13:00:00,26,Northward at Haywards,0.249,497,497
11/04/2024 13:00:00,11/04/2024 13:30:00,27,Northward at Haywards,0.287,573,573
11/04/2024 13:30:00,11/04/2024 14:00:00,28,Northward at Haywards,0.215,429,429
11/04/2024 14:00:00,11/04/2024 14:30:00,29,Northward at Haywards,0.211,422,422
11/04/2024 14:30:00,11/04/2024 15:00:00,30,Northward at Haywards,0.181,361,361
11/04/2024 15:00:00,11/04/2024 15:30:00,31,Northward at Haywards,0.155,309,309
11/04/2024 15:30:00,11/04/2024 16:00:00,32,Northward at Haywards,0.148,295,295
11/04/2024 16:00:00,11/04/2024 16:30:00,33,Northward at Haywards,0.141,281,281
11/04/2024 16:30:00,11/04/2024 17:00:00,34,Northward at Haywards,0.196,392,392
11/04/2024 17:00:00,11/04/2024 17:30:00,35,Northward at Haywards,0.210,420,420
11/04/2024 17:30:00,11/04/2024 18:00:00,36,Northward at Haywards,0.238,475,475
11/04/2024 18:00:00,11/04/2024 18:30:00,37,Northward at Haywards,0.244,488,488
11/04/2024 18:30:00,11/04/2024 19:00:00,38,Northward at Haywards,0.261,521,521
11/04/2024 19:00:00,11/04/2024 19:30:00,39,Northward at Haywards,0.247,494,494
11/04/2024 19:30:00,11/04/2024 20:00:00,40,Northward at Haywards,0.221,441,441
11/04/2024 20:00:00,11/04/2024 20:30:00,41,Northward at Haywards,0.185,370,370
11/04/2024 20:30:00,11/04/2024 21:00:00,42,Northward at Haywards,0.125,250,250
11/04/2024 21:00:00,11/04/2024 21:30:00,43,Northward at Haywards,0.155,309,309
11/04/2024 21:30:00,11/04/2024 22:00:00,44,Northward at Haywards,0.124,247,247
11/04/2024 22:00:00,11/04/2024 22:30:00,45,Northward at Haywards,0.074,147,147
11/04/2024 22:30:00,11/04/2024 23:00:00,46,Northward at Haywards,0.054,107,107
11/04/2024 23:00:00,11/04/2024 23:30:00,47,Northward at Haywards,0.053,105,105
11/04/2024 23:30:00,12/04/2024 00:00:00,48,Northward at Haywards,0.060,120,120
12/04/2024 00:00:00,12/04/2024 00:30:00,1,Northward at Haywards,0.082,163,163
12/04/2024 00:30:00,12/04/2024 01:00:00,2,Northward at Haywards,0.086,172,172
12/04/2024 01:00:00,12/04/2024 01:30:00,3,Northward at Haywards,0.110,219,219
12/04/2024 01:30:00,12/04/2024 02:00:00,4,Northward at Haywards,0.116,231,231
12/04/2024 02:00:00,12/04/2024 02:30:00,5,Northward at Haywards,0.089,177,177
12/04/2024 02:30:00,12/04/2024 03:00:00,6,Northward at Haywards,0.129,258,258
12/04/2024 03:00:00,12/04/2024 03:30:00,7,Northward at Haywards,0.129,258,258
12/04/2024 03:30:00,12/04/2024 04:00:00,8,Northward at Haywards,0.131,262,262
12/04/2024 04:00:00,12/04/2024 04:30:00,9,Northward at Haywards,0.133,266,266
12/04/2024 04:30:00,12/04/2024 05:00:00,10,Northward at Haywards,0.128,256,256
12/04/2024 05:00:00,12/04/2024 05:30:00,11,Northward at Haywards,0.123,245,245
12/04/2024 05:30:00,12/04/2024 06:00:00,12,Northward at Haywards,0.111,221,221
12/04/2024 06:00:00,12/04/2024 06:30:00,13,Northward at Haywards,0.062,124,124
12/04/2024 06:30:00,12/04/2024 07:00:00,14,Northward at Haywards,0.079,157,157
12/04/2024 07:00:00,12/04/2024 07:30:00,15,Northward at Haywards,0.156,311,311
12/04/2024 07:30:00,12/04/2024 08:00:00,16,Northward at Haywards,0.238,475,475
12/04/2024 08:00:00,12/04/2024 08:30:00,17,Northward at Haywards,0.257,513,513
12/04/2024 08:30:00,12/04/2024 09:00:00,18,Northward at Haywards,0.258,515,515
12/04/2024 09:00:00,12/04/2024 09:30:00,19,Northward at Haywards,0.234,467,467
12/04/2024 09:30:00,12/04/2024 10:00:00,20,Northward at Haywards,0.233,465,465
12/04/2024 10:00:00,12/04/2024 10:30:00,21,Northward at Haywards,0.243,485,485
12/04/2024 10:30:00,12/04/2024 11:00:00,22,Northward at Haywards,0.286,572,572
12/04/2024 11:00:00,12/04/2024 11:30:00,23,Northward at Haywards,0.335,669,669
12/04/2024 11:30:00,12/04/2024 12:00:00,24,Northward at Haywards,0.332,664,664
12/04/2024 12:00:00,12/04/2024 12:30:00,25,Northward at Haywards,0.274,547,547
12/04/2024 12:30:00,12/04/2024 13:00:00,26,Northward at Haywards,0.252,503,503
12/04/2024 13:00:00,12/04/2024 13:30:00,27,Northward at Haywards,0.243,485,485
12/04/2024 13:30:00,12/04/2024 14:00:00,28,Northward at Haywards,0.239,477,477
12/04/2024 14:00:00,12/04/2024 14:30:00,29,Northward at Haywards,0.234,468,468
12/04/2024 14:30:00,12/04/2024 15:00:00,30,Northward at Haywards,0.224,447,447
12/04/2024 15:00:00,12/04/2024 15:30:00,31,Northward at Haywards,0.202,403,403
12/04/2024 15:30:00,12/04/2024 16:00:00,32,Northward at Haywards,0.190,380,380
12/04/2024 16:00:00,12/04/2024 16:30:00,33,Northward at Haywards,0.168,336,336
12/04/2024 16:30:00,12/04/2024 17:00:00,34,Northward at Haywards,0.168,336,336
12/04/2024 17:00:00,12/04/2024 17:30:00,35,Northward at Haywards,0.184,367,367
12/04/2024 17:30:00,12/04/2024 18:00:00,36,Northward at Haywards,0.208,416,416
12/04/2024 18:00:00,12/04/2024 18:30:00,37,Northward at Haywards,0.248,496,496
12/04/2024 18:30:00,12/04/2024 19:00:00,38,Northward at Haywards,0.225,449,449
12/04/2024 19:00:00,12/04/2024 19:30:00,39,Northward at Haywards,0.155,310,310
12/04/2024 19:30:00,12/04/2024 20:00:00,40,Northward at Haywards,0.159,318,318
12/04/2024 20:00:00,12/04/2024 20:30:00,41,Northward at Haywards,0.170,340,340
12/04/2024 20:30:00,12/04/2024 21:00:00,42,Northward at Haywards,0.179,357,357
12/04/2024 21:00:00,12/04/2024 21:30:00,43,Northward at Haywards,0.206,412,412
12/04/2024 21:30:00,12/04/2024 22:00:00,44,Northward at Haywards,0.200,400,400
12/04/2024 22:00:00,12/04/2024 22:30:00,45,Northward at Haywards,0.136,272,272
12/04/2024 22:30:00,12/04/2024 23:00:00,46,Northward at Haywards,0.116,232,232
12/04/2024 23:00:00,12/04/2024 23:30:00,47,Northward at Haywards,0.122,244,244
12/04/2024 23:30:00,13/04/2024 00:00:00,48,Northward at Haywards,0.111,222,222
13/04/2024 00:00:00,13/04/2024 00:30:00,1,Northward at Haywards,0.098,195,195
13/04/2024 00:30:00,13/04/2024 01:00:00,2,Northward at Haywards,0.115,229,229
13/04/2024 01:00:00,13/04/2024 01:30:00,3,Northward at Haywards,0.126,251,251
13/04/2024 01:30:00,13/04/2024 02:00:00,4,Northward at Haywards,0.113,225,225
13/04/2024 02:00:00,13/04/2024 02:30:00,5,Northward at Haywards,0.122,244,244
13/04/2024 02:30:00,13/04/2024 03:00:00,6,Northward at Haywards,0.117,234,234
13/04/2024 03:00:00,13/04/2024 03:30:00,7,Northward at Haywards,0.106,211,211
13/04/2024 03:30:00,13/04/2024 04:00:00,8,Northward at Haywards,0.102,203,203
13/04/2024 04:00:00,13/04/2024 04:30:00,9,Northward at Haywards,0.124,248,248
13/04/2024 04:30:00,13/04/2024 05:00:00,10,Northward at Haywards,0.111,222,222
13/04/2024 05:00:00,13/04/2024 05:30:00,11,Northward at Haywards,0.099,198,198
13/04/2024 05:30:00,13/04/2024 06:00:00,12,Northward at Haywards,0.097,193,193
13/04/2024 06:00:00,13/04/2024 06:30:00,13,Northward at Haywards,0.100,200,200
13/04/2024 06:30:00,13/04/2024 07:00:00,14,Northward at Haywards,0.116,231,231
13/04/2024 07:00:00,13/04/2024 07:30:00,15,Northward at Haywards,0.128,255,255
13/04/2024 07:30:00,13/04/2024 08:00:00,16,Northward at Haywards,0.122,243,243
13/04/2024 08:00:00,13/04/2024 08:30:00,17,Northward at Haywards,0.117,233,233
13/04/2024 08:30:00,13/04/2024 09:00:00,18,Northward at Haywards,0.148,295,295
13/04/2024 09:00:00,13/04/2024 09:30:00,19,Northward at Haywards,0.138,276,276
13/04/2024 09:30:00,13/04/2024 10:00:00,20,Northward at Haywards,0.138,276,276
13/04/2024 10:00:00,13/04/2024 10:30:00,21,Northward at Haywards,0.140,280,280
13/04/2024 10:30:00,13/04/2024 11:00:00,22,Northward at Haywards,0.133,265,265
13/04/2024 11:00:00,13/04/2024 11:30:00,23,Northward at Haywards,0.102,204,204
13/04/2024 11:30:00,13/04/2024 12:00:00,24,Northward at Haywards,0.105,209,209
13/04/2024 12:00:00,13/04/2024 12:30:00,25,Northward at Haywards,0.098,196,196
13/04/2024 12:30:00,13/04/2024 13:00:00,26,Northward at Haywards,0.093,185,185
13/04/2024 13:00:00,13/04/2024 13:30:00,27,Northward at Haywards,0.096,192,192
13/04/2024 13:30:00,13/04/2024 14:00:00,28,Northward at Haywards,0.108,216,216
13/04/2024 14:00:00,13/04/2024 14:30:00,29,Northward at Haywards,0.121,241,241
13/04/2024 14:30:00,13/04/2024 15:00:00,30,Northward at Haywards,0.111,221,221
13/04/2024 15:00:00,13/04/2024 15:30:00,31,Northward at Haywards,0.140,280,280
13/04/2024 15:30:00,13/04/2024 16:00:00,32,Northward at Haywards,0.140,280,280
13/04/2024 16:00:00,13/04/2024 16:30:00,33,Northward at Haywards,0.134,268,268
13/04/2024 16:30:00,13/04/2024 17:00:00,34,Northward at Haywards,0.123,245,245
13/04/2024 17:00:00,13/04/2024 17:30:00,35,Northward at Haywards,0.133,266,266
13/04/2024 17:30:00,13/04/2024 18:00:00,36,Northward at Haywards,0.117,233,233
13/04/2024 18:00:00,13/04/2024 18:30:00,37,Northward at Haywards,0.142,284,284
13/04/2024 18:30:00,13/04/2024 19:00:00,38,Northward at Haywards,0.133,265,265
13/04/2024 19:00:00,13/04/2024 19:30:00,39,Northward at Haywards,0.100,199,199
13/04/2024 19:30:00,13/04/2024 20:00:00,40,Northward at Haywards,0.088,175,175
13/04/2024 20:00:00,13/04/2024 20:30:00,41,Northward at Haywards,0.121,242,242
13/04/2024 20:30:00,13/04/2024 21:00:00,42,Northward at Haywards,0.121,242,242
13/04/2024 21:00:00,13/04/2024 21:30:00,43,Northward at Haywards,0.135,269,269
13/04/2024 21:30:00,13/04/2024 22:00:00,44,Northward at Haywards,0.131,261,261
13/04/2024 22:00:00,13/04/2024 22:30:00,45,Northward at Haywards,0.078,156,156
13/04/2024 22:30:00,13/04/2024 23:00:00,46,Northward at Haywards,0.071,142,142
13/04/2024 23:00:00,13/04/2024 23:30:00,47,Northward at Haywards,0.067,133,133
13/04/2024 23:30:00,14/04/2024 00:00:00,48,Northward at Haywards,0.078,155,155
14/04/2024 00:00:00,14/04/2024 00:30:00,1,Northward at Haywards,0.099,197,197
14/04/2024 00:30:00,14/04/2024 01:00:00,2,Northward at Haywards,0.116,231,231
14/04/2024 01:00:00,14/04/2024 01:30:00,3,Northward at Haywards,0.123,245,245
14/04/2024 01:30:00,14/04/2024 02:00:00,4,Northward at Haywards,0.107,214,214
14/04/2024 02:00:00,14/04/2024 02:30:00,5,Northward at Haywards,0.113,226,226
14/04/2024 02:30:00,14/04/2024 03:00:00,6,Northward at Haywards,0.125,250,250
14/04/2024 03:00:00,14/04/2024 03:30:00,7,Northward at Haywards,0.127,253,253
14/04/2024 03:30:00,14/04/2024 04:00:00,8,Northward at Haywards,0.120,239,239
14/04/2024 04:00:00,14/04/2024 04:30:00,9,Northward at Haywards,0.112,223,223
14/04/2024 04:30:00,14/04/2024 05:00:00,10,Northward at Haywards,0.099,198,198
14/04/2024 05:00:00,14/04/2024 05:30:00,11,Northward at Haywards,0.083,166,166
14/04/2024 05:30:00,14/04/2024 06:00:00,12,Northward at Haywards,0.120,239,239
14/04/2024 06:00:00,14/04/2024 06:30:00,13,Northward at Haywards,0.112,224,224
14/04/2024 06:30:00,14/04/2024 07:00:00,14,Northward at Haywards,0.136,271,271
14/04/2024 07:00:00,14/04/2024 07:30:00,15,Northward at Haywards,0.167,333,333
14/04/2024 07:30:00,14/04/2024 08:00:00,16,Northward at Haywards,0.161,321,321
14/04/2024 08:00:00,14/04/2024 08:30:00,17,Northward at Haywards,0.168,336,336
14/04/2024 08:30:00,14/04/2024 09:00:00,18,Northward at Haywards,0.155,310,310
14/04/2024 09:00:00,14/04/2024 09:30:00,19,Northward at Haywards,0.194,388,388
14/04/2024 09:30:00,14/04/2024 10:00:00,20,Northward at Haywards,0.203,405,405
14/04/2024 10:00:00,14/04/2024 10:30:00,21,Northward at Haywards,0.210,419,419
14/04/2024 10:30:00,14/04/2024 11:00:00,22,Northward at Haywards,0.208,416,416
14/04/2024 11:00:00,14/04/2024 11:30:00,23,Northward at Haywards,0.205,409,409
14/04/2024 11:30:00,14/04/2024 12:00:00,24,Northward at Haywards,0.206,412,412
14/04/2024 12:00:00,14/04/2024 12:30:00,25,Northward at Haywards,0.221,441,441
14/04/2024 12:30:00,14/04/2024 13:00:00,26,Northward at Haywards,0.217,433,433
14/04/2024 13:00:00,14/04/2024 13:30:00,27,Northward at Haywards,0.224,448,448
14/04/2024 13:30:00,14/04/2024 14:00:00,28,Northward at Haywards,0.223,446,446
14/04/2024 14:00:00,14/04/2024 14:30:00,29,Northward at Haywards,0.212,423,423
14/04/2024 14:30:00,14/04/2024 15:00:00,30,Northward at Haywards,0.217,433,433
14/04/2024 15:00:00,14/04/2024 15:30:00,31,Northward at Haywards,0.213,425,425
14/04/2024 15:30:00,14/04/2024 16:00:00,32,Northward at Haywards,0.210,419,419
14/04/2024 16:00:00,14/04/2024 16:30:00,33,Northward at Haywards,0.210,420,420
14/04/2024 16:30:00,14/04/2024 17:00:00,34,Northward at Haywards,0.216,432,432
14/04/2024 17:00:00,14/04/2024 17:30:00,35,Northward at Haywards,0.228,455,455
14/04/2024 17:30:00,14/04/2024 18:00:00,36,Northward at Haywards,0.244,487,487
14/04/2024 18:00:00,14/04/2024 18:30:00,37,Northward at Haywards,0.255,509,509
14/04/2024 18:30:00,14/04/2024 19:00:00,38,Northward at Haywards,0.267,534,534
14/04/2024 19:00:00,14/04/2024 19:30:00,39,Northward at Haywards,0.240,480,480
14/04/2024 19:30:00,14/04/2024 20:00:00,40,Northward at Haywards,0.239,478,478
14/04/2024 20:00:00,14/04/2024 20:30:00,41,Northward at Haywards,0.223,446,446
14/04/2024 20:30:00,14/04/2024 21:00:00,42,Northward at Haywards,0.209,418,418
14/04/2024 21:00:00,14/04/2024 21:30:00,43,Northward at Haywards,0.212,423,423
14/04/2024 21:30:00,14/04/2024 22:00:00,44,Northward at Haywards,0.198,395,395
14/04/2024 22:00:00,14/04/2024 22:30:00,45,Northward at Haywards,0.160,320,320
14/04/2024 22:30:00,14/04/2024 23:00:00,46,Northward at Haywards,0.131,262,262
14/04/2024 23:00:00,14/04/2024 23:30:00,47,Northward at Haywards,0.111,221,221
14/04/2024 23:30:00,15/04/2024 00:00:00,48,Northward at Haywards,0.108,216,216
15/04/2024 00:00:00,15/04/2024 00:30:00,1,Northward at Haywards,0.134,267,267
15/04/2024 00:30:00,15/04/2024 01:00:00,2,Northward at Haywards,0.149,298,298
15/04/2024 01:00:00,15/04/2024 01:30:00,3,Northward at Haywards,0.159,318,318
15/04/2024 01:30:00,15/04/2024 02:00:00,4,Northward at Haywards,0.169,337,337
15/04/2024 02:00:00,15/04/2024 02:30:00,5,Northward at Haywards,0.149,298,298
15/04/2024 02:30:00,15/04/2024 03:00:00,6,Northward at Haywards,0.156,311,311
15/04/2024 03:00:00,15/04/2024 03:30:00,7,Northward at Haywards,0.157,313,313
15/04/2024 03:30:00,15/04/2024 04:00:00,8,Northward at Haywards,0.163,325,325
15/04/2024 04:00:00,15/04/2024 04:30:00,9,Northward at Haywards,0.159,317,317
15/04/2024 04:30:00,15/04/2024 05:00:00,10,Northward at Haywards,0.170,340,340
15/04/2024 05:00:00,15/04/2024 05:30:00,11,Northward at Haywards,0.141,282,282
15/04/2024 05:30:00,15/04/2024 06:00:00,12,Northward at Haywards,0.169,338,338
15/04/2024 06:00:00,15/04/2024 06:30:00,13,Northward at Haywards,0.185,369,369
15/04/2024 06:30:00,15/04/2024 07:00:00,14,Northward at Haywards,0.210,420,420
15/04/2024 07:00:00,15/04/2024 07:30:00,15,Northward at Haywards,0.291,582,582
15/04/2024 07:30:00,15/04/2024 08:00:00,16,Northward at Haywards,0.309,618,618
15/04/2024 08:00:00,15/04/2024 08:30:00,17,Northward at Haywards,0.322,643,643
15/04/2024 08:30:00,15/04/2024 09:00:00,18,Northward at Haywards,0.341,681,681
15/04/2024 09:00:00,15/04/2024 09:30:00,19,Northward at Haywards,0.339,677,677
15/04/2024 09:30:00,15/04/2024 10:00:00,20,Northward at Haywards,0.322,643,643
15/04/2024 10:00:00,15/04/2024 10:30:00,21,Northward at Haywards,0.337,673,673
15/04/2024 10:30:00,15/04/2024 11:00:00,22,Northward at Haywards,0.339,678,678
15/04/2024 11:00:00,15/04/2024 11:30:00,23,Northward at Haywards,0.374,748,748
15/04/2024 11:30:00,15/04/2024 12:00:00,24,Northward at Haywards,0.370,740,740
15/04/2024 12:00:00,15/04/2024 12:30:00,25,Northward at Haywards,0.333,666,666
15/04/2024 12:30:00,15/04/2024 13:00:00,26,Northward at Haywards,0.318,636,636
15/04/2024 13:00:00,15/04/2024 13:30:00,27,Northward at Haywards,0.293,585,585
15/04/2024 13:30:00,15/04/2024 14:00:00,28,Northward at Haywards,0.294,588,588
15/04/2024 14:00:00,15/04/2024 14:30:00,29,Northward at Haywards,0.290,580,580
15/04/2024 14:30:00,15/04/2024 15:00:00,30,Northward at Haywards,0.284,567,567
15/04/2024 15:00:00,15/04/2024 15:30:00,31,Northward at Haywards,0.286,571,571
15/04/2024 15:30:00,15/04/2024 16:00:00,32,Northward at Haywards,0.287,574,574
15/04/2024 16:00:00,15/04/2024 16:30:00,33,Northward at Haywards,0.295,590,590
15/04/2024 16:30:00,15/04/2024 17:00:00,34,Northward at Haywards,0.303,605,605
15/04/2024 17:00:00,15/04/2024 17:30:00,35,Northward at Haywards,0.304,607,607
15/04/2024 17:30:00,15/04/2024 18:00:00,36,Northward at Haywards,0.303,605,605
15/04/2024 18:00:00,15/04/2024 18:30:00,37,Northward at Haywards,0.320,640,640
15/04/2024 18:30:00,15/04/2024 19:00:00,38,Northward at Haywards,0.326,651,651
15/04/2024 19:00:00,15/04/2024 19:30:00,39,Northward at Haywards,0.293,585,585
15/04/2024 19:30:00,15/04/2024 20:00:00,40,Northward at Haywards,0.272,543,543
15/04/2024 20:00:00,15/04/2024 20:30:00,41,Northward at Haywards,0.247,494,494
15/04/2024 20:30:00,15/04/2024 21:00:00,42,Northward at Haywards,0.242,484,484
15/04/2024 21:00:00,15/04/2024 21:30:00,43,Northward at Haywards,0.212,424,424
15/04/2024 21:30:00,15/04/2024 22:00:00,44,Northward at Haywards,0.209,417,417
15/04/2024 22:00:00,15/04/2024 22:30:00,45,Northward at Haywards,0.177,354,354
15/04/2024 22:30:00,15/04/2024 23:00:00,46,Northward at Haywards,0.182,363,363
15/04/2024 23:00:00,15/04/2024 23:30:00,47,Northward at Haywards,0.116,231,231
15/04/2024 23:30:00,16/04/2024 00:00:00,48,Northward at Haywards,0.132,263,263
16/04/2024 00:00:00,16/04/2024 00:30:00,1,Northward at Haywards,0.144,287,287
16/04/2024 00:30:00,16/04/2024 01:00:00,2,Northward at Haywards,0.128,255,255
16/04/2024 01:00:00,16/04/2024 01:30:00,3,Northward at Haywards,0.134,268,268
16/04/2024 01:30:00,16/04/2024 02:00:00,4,Northward at Haywards,0.149,298,298
16/04/2024 02:00:00,16/04/2024 02:30:00,5,Northward at Haywards,0.156,311,311
16/04/2024 02:30:00,16/04/2024 03:00:00,6,Northward at Haywards,0.138,275,275
16/04/2024 03:00:00,16/04/2024 03:30:00,7,Northward at Haywards,0.104,207,207
16/04/2024 03:30:00,16/04/2024 04:00:00,8,Northward at Haywards,0.078,156,156
16/04/2024 04:00:00,16/04/2024 04:30:00,9,Northward at Haywards,0.105,210,210
16/04/2024 04:30:00,16/04/2024 05:00:00,10,Northward at Haywards,0.138,275,275
16/04/2024 05:00:00,16/04/2024 05:30:00,11,Northward at Haywards,0.148,295,295
16/04/2024 05:30:00,16/04/2024 06:00:00,12,Northward at Haywards,0.171,341,341
16/04/2024 06:00:00,16/04/2024 06:30:00,13,Northward at Haywards,0.204,407,407
16/04/2024 06:30:00,16/04/2024 07:00:00,14,Northward at Haywards,0.234,467,467
16/04/2024 07:00:00,16/04/2024 07:30:00,15,Northward at Haywards,0.279,558,558
16/04/2024 07:30:00,16/04/2024 08:00:00,16,Northward at Haywards,0.284,567,567
16/04/2024 08:00:00,16/04/2024 08:30:00,17,Northward at Haywards,0.292,584,584
16/04/2024 08:30:00,16/04/2024 09:00:00,18,Northward at Haywards,0.295,590,590
16/04/2024 09:00:00,16/04/2024 09:30:00,19,Northward at Haywards,0.307,613,613
16/04/2024 09:30:00,16/04/2024 10:00:00,20,Northward at Haywards,0.292,583,583
16/04/2024 10:00:00,16/04/2024 10:30:00,21,Northward at Haywards,0.275,549,549
16/04/2024 10:30:00,16/04/2024 11:00:00,22,Northward at Haywards,0.300,599,599
16/04/2024 11:00:00,16/04/2024 11:30:00,23,Northward at Haywards,0.302,603,603
16/04/2024 11:30:00,16/04/2024 12:00:00,24,Northward at Haywards,0.288,576,576
16/04/2024 12:00:00,16/04/2024 12:30:00,25,Northward at Haywards,0.298,595,595
16/04/2024 12:30:00,16/04/2024 13:00:00,26,Northward at Haywards,0.293,585,585
16/04/2024 13:00:00,16/04/2024 13:30:00,27,Northward at Haywards,0.300,600,600
16/04/2024 13:30:00,16/04/2024 14:00:00,28,Northward at Haywards,0.292,583,583
16/04/2024 14:00:00,16/04/2024 14:30:00,29,Northward at Haywards,0.288,576,576
16/04/2024 14:30:00,16/04/2024 15:00:00,30,Northward at Haywards,0.286,572,572
16/04/2024 15:00:00,16/04/2024 15:30:00,31,Northward at Haywards,0.269,538,538
16/04/2024 15:30:00,16/04/2024 16:00:00,32,Northward at Haywards,0.259,517,517
16/04/2024 16:00:00,16/04/2024 16:30:00,33,Northward at Haywards,0.231,462,462
16/04/2024 16:30:00,16/04/2024 17:00:00,34,Northward at Haywards,0.241,482,482
16/04/2024 17:00:00,16/04/2024 17:30:00,35,Northward at Haywards,0.237,474,474
16/04/2024 17:30:00,16/04/2024 18:00:00,36,Northward at Haywards,0.228,455,455
16/04/2024 18:00:00,16/04/2024 18:30:00,37,Northward at Haywards,0.214,427,427
16/04/2024 18:30:00,16/04/2024 19:00:00,38,Northward at Haywards,0.222,443,443
16/04/2024 19:00:00,16/04/2024 19:30:00,39,Northward at Haywards,0.218,435,435
16/04/2024 19:30:00,16/04/2024 20:00:00,40,Northward at Haywards,0.203,406,406
16/04/2024 20:00:00,16/04/2024 20:30:00,41,Northward at Haywards,0.193,386,386
16/04/2024 20:30:00,16/04/2024 21:00:00,42,Northward at Haywards,0.192,384,384
16/04/2024 21:00:00,16/04/2024 21:30:00,43,Northward at Haywards,0.199,397,397
16/04/2024 21:30:00,16/04/2024 22:00:00,44,Northward at Haywards,0.207,413,413
16/04/2024 22:00:00,16/04/2024 22:30:00,45,Northward at Haywards,0.144,288,288
16/04/2024 22:30:00,16/04/2024 23:00:00,46,Northward at Haywards,0.132,264,264
16/04/2024 23:00:00,16/04/2024 23:30:00,47,Northward at Haywards,0.108,216,216
16/04/2024 23:30:00,17/04/2024 00:00:00,48,Northward at Haywards,0.106,211,211
17/04/2024 00:00:00,17/04/2024 00:30:00,1,Northward at Haywards,0.098,196,196
17/04/2024 00:30:00,17/04/2024 01:00:00,2,Northward at Haywards,0.081,162,162
17/04/2024 01:00:00,17/04/2024 01:30:00,3,Northward at Haywards,0.073,145,145
17/04/2024 01:30:00,17/04/2024 02:00:00,4,Northward at Haywards,0.074,148,148
17/04/2024 02:00:00,17/04/2024 02:30:00,5,Northward at Haywards,0.063,126,126
17/04/2024 02:30:00,17/04/2024 03:00:00,6,Northward at Haywards,0.046,92,92
17/04/2024 03:00:00,17/04/2024 03:30:00,7,Northward at Haywards,0.049,98,98
17/04/2024 03:30:00,17/04/2024 04:00:00,8,Northward at Haywards,0.048,96,96